This is the latest recevied weather packets stored in our database for station/object W4FXD. If no packets are shown the sender has not sent any weather packets the latest 1 day(s).
| Time | Temp. | Humidity | Pressure | Rain* | Wind** | Luminosity | Snow |
|---|---|---|---|---|---|---|---|
| 1778045411 | 18.33° C | 71% | 1011.7 hPa | 0 mm | 0 m/s | 0 W/m² | - |
| 1778045109 | 18.89° C | 70% | 1011.4 hPa | 1.27 mm | 0.45 m/s, 40° | 0 W/m² | - |
| 1778044806 | 20° C | 63% | 1011.3 hPa | 1.27 mm | 0.45 m/s, 143° | 0 W/m² | - |
| 1778044503 | 20.56° C | 56% | 1011.5 hPa | 0 mm | 0.45 m/s, 150° | 0 W/m² | - |
| 1778044200 | 20° C | 56% | 1011.4 hPa | 0 mm | 0.45 m/s, 133° | 0 W/m² | - |
| 1778043898 | 20° C | 57% | 1011.4 hPa | 0 mm | 0.45 m/s, 338° | 0 W/m² | - |
| 1778043595 | 20° C | 57% | 1011.6 hPa | 0 mm | 0 m/s | 0 W/m² | - |
| 1778043291 | 20° C | 56% | 1011.6 hPa | 0 mm | 0 m/s | 0 W/m² | - |
| 1778042988 | 20° C | 57% | 1011.6 hPa | 0 mm | 0.45 m/s, 309° | 0 W/m² | - |
| 1778042686 | 20° C | 58% | 1011.3 hPa | 0 mm | 0 m/s | 0 W/m² | - |
| 1778042383 | 20° C | 57% | 1011.6 hPa | 0 mm | 0.45 m/s, 205° | 0 W/m² | - |
| 1778042080 | 20° C | 57% | 1011.5 hPa | 0 mm | 0 m/s | 0 W/m² | - |
| 1778041777 | 20° C | 57% | 1011.5 hPa | 0 mm | 0.45 m/s, 285° | 0 W/m² | - |
| 1778041477 | 20° C | 58% | 1011.4 hPa | 0 mm | 0.45 m/s, 110° | 0 W/m² | - |
| 1778041174 | 20° C | 58% | 1011.6 hPa | 0 mm | 0.45 m/s, 157° | 0 W/m² | - |
| 1778040872 | 20° C | 59% | 1011.5 hPa | 0 mm | 0.45 m/s, 188° | 0 W/m² | - |
| 1778040569 | 20° C | 59% | 1011.6 hPa | 0 mm | 0 m/s | 0 W/m² | - |
| 1778040267 | 20° C | 59% | 1011.7 hPa | 0 mm | 0.45 m/s, 149° | 0 W/m² | - |
| 1778039962 | 20° C | 58% | 1011.7 hPa | 0 mm | 0.45 m/s, 278° | 0 W/m² | - |
| 1778039660 | 20° C | 58% | 1011.6 hPa | 0 mm | 0.45 m/s, 287° | 0 W/m² | - |
| 1778039357 | 20° C | 59% | 1011.4 hPa | 0 mm | 0.45 m/s, 317° | 0 W/m² | - |
| 1778039054 | 20.56° C | 57% | 1011.6 hPa | 0 mm | 0.45 m/s, 229° | 0 W/m² | - |
| 1778038751 | 21.11° C | 55% | 1011.8 hPa | 0 mm | 0 m/s | 0 W/m² | - |
| 1778038448 | 21.67° C | 51% | 1012 hPa | 0 mm | 0.45 m/s, 183° | 0 W/m² | - |
| 1778038145 | 21.67° C | 50% | 1012.1 hPa | 0 mm | 0.45 m/s, 151° | 0 W/m² | - |
* Rain latest hour (hover to see other rain measurements)
** Current wind speed in m/s (hover to see current wind gust speed)